Regional Weather Roundup
Issued by NWS

Home | Current Version | Previous Version | Text Only | Print | Product List | Glossary Off
Versions: 1 2 3 4 5 6 7 8 9 10 11 12 13 14 15 16 17 18 19 20 21 22 23 24 25 26 27 28 29 30 31 32 33 34 35 36 37 38 39 40 41 42 43 44 45 46 47 48 49 50

000
ASUS43 KMPX 290510
RWRMN
WEATHER ROUNDUP FOR MINNESOTA
NATIONAL WEATHER SERVICE TWIN CITIES/CHANHASSEN MN
1100 PM CST SUN DEC 28 2014


NOTE: "FAIR" INDICATES FEW OR NO CLOUDS BELOW 12,000 FEET WITH NO
SIGNIFICANT WEATHER AND/OR OBSTRUCTIONS TO VISIBILITY. N/A MEANS
CURRENT SKY AND/OR WEATHER CONDITIONS ARE NOT AVAILABLE.

MNZ060>063-068>070-290600-
   Twin Cities Metro

CITY           SKY/WX    TMP DP  RH WIND       PRES   REMARKS
TWIN CITIES    MOCLDY    11  -1  58 N12G21    30.36R WCI  -3
ST PAUL        MOCLDY    11   0  61 N5        30.38R WCI   3
CRYSTAL        MOCLDY    10   0  63 N6        30.36R WCI   0
BLAINE         PTCLDY     9   1  72 N5        30.36R WCI   0
LAKEVILLE      PTCLDY    10   3  72 N6        30.34R WCI   1
EDEN PRAIRIE   MOCLDY    12   2  64 N9        30.34R WCI   0
SOUTH ST PAUL  MOCLDY    13   1  59 N5        30.36R WCI   5
LAKE ELMO      FAIR       9   1  72 N5        30.36R WCI   0
$$
MNZ001>005-007-008-013>017-022>024-027-028-290600-
   Northwest Minnesota

CITY           SKY/WX    TMP DP  RH WIND       PRES   REMARKS
BEMIDJI        FAIR     -10 -14  81 NW5       30.38R WCI -21
HALLOCK        PTCLDY    -9 -15  77 N13       30.51R WCI -30
ROSEAU         PTCLDY    -9 -17  70 NW5       30.46R WCI -21
WARROAD        PTCLDY   -11 -17  77 W3        30.45R
THIEF RVR FALL PTCLDY    -8 -11  84 N10       30.45R WCI -26
CROOKSTON      CLEAR     -9 -15  77 N6        30.51R WCI -23
FOSSTON        CLEAR    -11 -15  84 NW7       30.42R WCI -26
DETROIT LAKES  CLEAR     -4  -8  84 N9        30.41R WCI -20
MOORHEAD       CLEAR     -4  -8  84 N10G16    30.49R WCI -21
PARK RAPIDS    CLEAR     -3  -8  79 N8        30.36R WCI -18
MAHNOMEN       FAIR      -7 -12  79 N8        30.42R WCI -23
$$
MNZ006-009>011-018-025>026-290600-
   North Central Minnesota

CITY           SKY/WX    TMP DP  RH WIND       PRES   REMARKS
BAUDETTE       CLEAR    -10 -16  74 NW10      30.41R WCI -29
FLAG ISLAND    PTCLDY   -13 -18  77 NW13      30.43R WCI -34
INTL FALLS     CLEAR     -9 -15  75 NW6       30.38R WCI -22
WASKISH        CLEAR     -8 -11  84 NW7       30.40R WCI -22
BIG FORK       CLEAR     -6 -11  77 NW3       30.36R
LONGVILLE      CLEAR     -2  -6  84 N3        30.36R
GRAND RAPIDS   CLEAR     -2  -9  71 N10       30.33R WCI -19
CRANE LAKE     FAIR      -8 -11  84 CALM      30.39R
ORR            CLEAR     -8 -13  77 NW8       30.32R WCI -23
COOK           CLEAR     -8 -11  84 CALM      30.34S
WALKER         FAIR      -5  -9  81 NW5       30.37R WCI -16
$$
MNZ012-019>021-037-290600-
   Northeast Minnesota

CITY           SKY/WX    TMP DP  RH WIND       PRES   REMARKS
DULUTH         FAIR       1  -8  66 NW12G22   30.29R WCI -16
ELY            CLEAR     -8 -11  84 NW5       30.31R WCI -19
HIBBING        CLEAR     -3 -11  68 N9        30.32R WCI -19
EVELETH        CLEAR     -2  -9  71 N6        30.33R WCI -14
DULUTH HARBOR  CLEAR      7  -4  61 NW10      30.39R WCI  -8
TWO HARBORS    CLEAR      3  -6  66 NW3       30.30R
SILVER BAY     CLEAR      1  -8  66 N3        30.28R
GRAND MARAIS     N/A      1  -8  66 VRB3      30.34R
G MARAIS ARPRT PTCLDY    -8 -15  71 NW8G18    30.18R WCI -23
$$
MNZ029>031-032-039>041-046>048-054>057-064-290600-
   West Central Minnesota

CITY           SKY/WX    TMP DP  RH WIND       PRES   REMARKS
FERGUS FALLS   PTCLDY     1  -8  66 N7        30.46R WCI -11
WHEATON        MOCLDY     0  -6  78 NW10      30.46R WCI -17
MORRIS         CLOUDY     9   3  78 N10       30.38R WCI  -6
ALEXANDRIA     FAIR       7  -1  70 NE8       30.36R WCI  -6
ELBOW LAKE     FAIR       4  -1  77 N9        30.40R WCI -10
WADENA         CLEAR      0  -6  78 N5        30.37R WCI -10
GLENWOOD       MOCLDY     7   1  78 N7        30.36R WCI  -5
APPLETON       CLOUDY    10   5  79 N9        30.40R WCI  -2
BENSON         CLOUDY    10   3  72 NE5       30.38R WCI   2
ORTONVILLE     CLOUDY     5   0  78 N12       30.41R WCI -11
MADISON        CLOUDY    12   7  79 N14       30.40R WCI  -3
WILLMAR        FAIR      14   3  62 NE10      30.37R WCI   1
$$
MNZ033>034-036-042>043-049>051-058-059-290600-
   Central Minnesota

CITY           SKY/WX    TMP DP  RH WIND       PRES   REMARKS
ST CLOUD       MOCLDY    11   0  61 N5        30.37R WCI   3
SAUK CENTRE    FAIR       6  -1  73 NW3       30.36R
PAYNESVILLE    MOCLDY     7   0  70 NW5       30.36R WCI  -1
AITKIN         CLEAR      3  -4  72 CALM      30.35R
PINE RIVER     CLEAR      0  -6  78 N7        30.39R WCI -13
BRAINERD       CLEAR      3  -5  69 N8        30.37R WCI -10
STAPLES        CLEAR      1  -6  71 N7        30.37R WCI -11
LONG PRAIRIE   FAIR       5  -2  72 N8        30.36R WCI  -8
LITTLE FALLS   PTCLDY     7   0  72 N3        30.38R
LITCHFIELD     CLOUDY    12   3  67 N9        30.36R WCI   0
BUFFALO        MOCLDY     9   1  68 N5        30.37R WCI   1
MAPLE LAKE     MOCLDY     9   3  76 N3        30.37R
$$
MNZ037-044-045-052-053-290600-
   East Central Minnesota

CITY           SKY/WX    TMP DP  RH WIND       PRES   REMARKS
PRINCETON      PTCLDY     9   0  66 CALM      30.36R
MORA           PTCLDY     7  -2  66 VRB3      30.37R
CAMBRIDGE      PTCLDY     9  -2  61 CALM      30.36R
RUSH CITY      PTCLDY     6  -2  71 CALM      30.38R
MOOSE LAKE     CLEAR      3  -4  72 N5        30.34R WCI  -6
HINCKLEY         N/A      7   0  72 CALM      30.35R
CLOQUET        CLEAR      1  -8  66 NW12      30.32R WCI -15
MCGREGOR       CLEAR      3  -2  78 NW5       30.36R WCI  -6
$$
MNZ071>073-080-081-089-090-097-098-290600-
   Southwest Minnesota

CITY           SKY/WX    TMP DP  RH WIND       PRES   REMARKS
MONTEVIDEO     CLOUDY    12   9  85 N7        30.39R WCI   2
GRANITE FALLS  CLOUDY    13   8  78 NW5       30.39R WCI   6
CANBY          CLOUDY     8   4  82 NW9       30.39R WCI  -5
MARSHALL       CLOUDY    10   3  72 NW12      30.36R WCI  -4
REDWOOD FALLS  CLOUDY    16   6  65 N7        30.36R WCI   6
OLIVIA         CLOUDY    14   9  79 N5        30.36R WCI   6
PIPESTONE      LGT SNOW  10   9  92 NE12      30.28R WCI  -4
WINDOM         CLOUDY    18  14  86 N9        30.30R WCI   6
WORTHINGTON    CLOUDY    16 -27  13 N10       30.28R WCI   3
JACKSON        CLOUDY    19  18  93 NE8       30.27S WCI   9
TRACY          CLOUDY    14  10  84 N10       30.33R WCI   1
SLAYTON        CLOUDY    12   9  87 N13       30.30R FOG     WCI  -3
$$
MNZ065>067-074>077-082>085-091>093-290600-
   South Central Minnesota

CITY           SKY/WX    TMP DP  RH WIND       PRES   REMARKS
MANKATO        CLOUDY    14   9  79 N6        30.33R WCI   5
NEW ULM        CLOUDY    14   5  67 NE6       30.34R WCI   5
ST JAMES       CLOUDY    18  16  93 N6        30.33R WCI   9
FAIRMONT       CLOUDY    18  12  79 N7        30.29R WCI   8
GLENCOE        CLOUDY    13   4  67 N5        30.35R WCI   5
FARIBAULT      CLOUDY    12   9  85 CALM      30.33R
OWATONNA       MOCLDY    14  10  85 N3        30.31R
WASECA         CLOUDY    12   9  85 N6        30.33R WCI   3
ALBERT LEA     CLOUDY    16  14  93 N5        30.28R WCI   9
$$
MNZ078>079-086>088-094>096-290600-
   Southeast Minnesota

CITY           SKY/WX    TMP DP  RH WIND       PRES   REMARKS
ROCHESTER      MOCLDY    12   9  87 NE3       30.29R FOG
RED WING       MOCLDY     7   1  78 CALM      30.34R
STANTON        PTCLDY     9   6  86 N5        30.32R WCI   1
DODGE CENTER   MOCLDY    12  10  92 N6        30.29R WCI   3
WINONA         MOCLDY    12  10  92 W3        30.34R
AUSTIN         CLOUDY    16  12  86 NE6       30.28R WCI   7
PRESTON        CLOUDY    12  10  90 N3        30.28R
$$
ABBREVIATIONS USED IN REMARKS
   TC - TEMPERATURES IN CELSIUS
  WCI - WIND CHILL INDEX
   HX - HEAT INDEX
  VSB - VISIBILITY
$$


USA.gov is the U.S. government's official web portal to all federal, state and local government web resources and services.